CZ-6A DEB, 55892

Orbit data source: Space-Track

CZ-6A DEB, 55892 is space debris in SSO originally from a launch on Fri, 11 Nov 2022 UTC launched from the Taiyaun Space Center, China (TSC). Debris objects in space refer to the collection of defunct objects orbiting the Earth. Examples of debris include non-operational satellites, rocket bodies, and fragments generated from explosions, collisions, or faulty payload assembly.

Loading next visibility...
Identifier
55892, 2022-151AAQ
Orbit
SSO
Country
Flag of CNCN / PRC
Related business
Manufacturer
SAST
Mission
Spacecraft
Bus & Motor
Unknown
Mass
Unknown
Launch date (UTC)
2022-11-11 (4 years ago)
Launch vehicle
Unknown
Launch site
Taiyaun Space Center, China (TSC)
Object type
Payload
Rocket body
Debris
Shape & HBR
Unknown shape, 0.1 m
Radar Cross Section
Small (<0.1 m²)

Expand to show TLE details & history
Last TLE update: 5 days ago

TLE from 5 days ago
0 CZ-6A DEB
1 55892U 22151AAQ 26168.82597180  .00002349  00000-0  15167-2 0  9993
2 55892  98.8562 136.5923 0131160  74.4904 287.0699 13.99705441177760
Epoch: 2026-06-17T19:49Z
TLE epoch observation values (Epoch: 2026-06-17T19:49:23.963Z)
Latitude
-0.00005°
Longitude
-66.83562°
Altitude
870.841 km
Speed
7.431 km/s
True Right ascension
09h 06m 22s
True Declination
0° 00' 00"
Sunlit
Object was in daylight at epoch
Visualization orbit readout
Latitude
Unknown
Longitude
Unknown
Altitude
Unknown
Speed
Unknown
Apparent Right ascension
Unknown
Apparent Declination
Unknown
Sunlit
N/A
Visualization observer readout
Local Sidereal Time
21:26:33
Azimuth
Unknown
Elevation
Unknown
Doppler factor
Unknown
Orbital elements
Apogee altitude
987.363 km
Perigee altitude
796.652 km
Semi-major axis
7,270.144 km
Eccentricity
0.01312
Inclination
98.8562°
RAAN
136.5923°
Arg. of periapsis
74.4904°
True anomaly
285.62633°
Mean anomaly
287.0699°
Eccentric anomaly
286.34879°
Mean motion
3.50129 °/min
Orbital period
102.82 mins
BSTAR
0.0015167
Loading maneuver chart data...
Computing Atmospheric mass density...
Loading historical data...
Loading historical data...
Loading historical data...
Loading historical data...
Loading historical data...
Loading historical data...
Loading historical data...

Documentation

Showing up to 5 results
|